This is the latest recevied weather packets stored in our database for station/object EA1FBN. If no packets are shown the sender has not sent any weather packets the latest 10 day(s).
| Time | Temp. | Humidity | Pressure | Rain* | Wind** | Luminosity | Snow |
|---|---|---|---|---|---|---|---|
| 1777906814 | 14.44° C | 62% | 1012.9 hPa | 0 mm | - | - | - |
| 1777905614 | 13.33° C | 64% | 1013 hPa | 0 mm | - | - | - |
| 1777905314 | 13.33° C | 65% | 1013.1 hPa | 0 mm | - | - | - |
| 1777904114 | 12.78° C | 67% | 1013.2 hPa | 0 mm | - | - | - |
| 1777903214 | 13.33° C | 66% | 1013.3 hPa | 0 mm | - | - | - |
| 1777901714 | 13.89° C | 63% | 1013.2 hPa | 0 mm | - | - | - |
| 1777901114 | 13.89° C | 62% | 1013.2 hPa | 0 mm | - | - | - |
| 1777900814 | 13.89° C | 59% | 1013.3 hPa | 0 mm | - | - | - |
| 1777900514 | 14.44° C | 61% | 1013.2 hPa | 0 mm | - | - | - |
| 1777898414 | 13.89° C | 59% | 1013.3 hPa | 0 mm | - | - | - |
| 1777898114 | 13.33° C | 59% | 1013.4 hPa | 0 mm | - | - | - |
| 1777897814 | 13.33° C | 63% | 1013.4 hPa | 0 mm | - | - | - |
| 1777897514 | 13.33° C | 61% | 1013.4 hPa | 0 mm | - | - | - |
| 1777897214 | 13.33° C | 64% | 1013.4 hPa | 0 mm | - | - | - |
| 1777896914 | 12.78° C | 68% | 1013.5 hPa | 0 mm | - | - | - |
| 1777896614 | 12.78° C | 71% | 1013.6 hPa | 0 mm | - | - | - |
| 1777896314 | 12.78° C | 72% | 1013.7 hPa | 0 mm | - | - | - |
| 1777896014 | 12.22° C | 72% | 1013.7 hPa | 0 mm | - | - | - |
| 1777895714 | 12.78° C | 72% | 1013.8 hPa | 0 mm | - | - | - |
| 1777895114 | 12.78° C | 70% | 1013.8 hPa | 0 mm | - | - | - |
| 1777894514 | 12.78° C | 69% | 1013.9 hPa | 0.25 mm | - | - | - |
| 1777894214 | 12.78° C | 68% | 1013.9 hPa | 0.25 mm | - | - | - |
| 1777893914 | 12.22° C | 69% | 1013.9 hPa | 0.25 mm | - | - | - |
| 1777893614 | 12.22° C | 72% | 1014 hPa | 0.25 mm | - | - | - |
| 1777893314 | 12.22° C | 70% | 1014 hPa | 0.25 mm | - | - | - |
* Rain latest hour (hover to see other rain measurements)
** Current wind speed in m/s (hover to see current wind gust speed)